DW2363 Weather Reports


Display with metric or nautical units.
time (UTC)temp
F
wind
direction
speed
MPH
gust
MPH
rain 1hr
in
rain 24hr
in
rain mn
in
humidity
%
barometer
mb
20260508005949 75 262 1.0 5.0 0.00 0.00 0.00 56 1014.3
20260508005454 75 267 1.0 5.0 0.00 0.00 0.00 57 1014.2
20260508005448 75 317 1.0 5.0 0.00 0.00 0.00 55 1014.2
20260508004448 75 277 2.0 5.0 0.00 0.00 0.00 55 1014.3
20260508003952 75 268 2.0 4.0 0.00 0.00 0.00 56 1014.3
20260508003948 76 257 1.0 5.0 0.00 0.00 0.00 55 1014.3
20260508002949 76 304 1.0 5.0 0.00 0.00 0.00 56 1014.3
20260508002448 76 300 1.0 6.0 0.00 0.00 0.00 55 1014.2
20260508001948 76 306 1.0 6.0 0.00 0.00 0.00 56 1014.2
20260508001448 76 293 1.0 6.0 0.00 0.00 0.00 56 1014.2
20260508000948 76 229 1.0 6.0 0.00 0.00 0.00 56 1014.2
20260508000445 76 18 2.0 6.0 0.00 0.00 0.00 55 1014.3
20260507235946 76 47 1.0 9.0 0.00 0.00 0.00 55 1014.3
20260507235454 76 258 1.0 9.0 0.00 0.00 0.00 56 1014.3
20260507235447 76 315 1.0 9.0 0.00 0.00 0.00 55 1014.3
20260507234446 76 309 2.0 9.0 0.00 0.00 0.00 57 1014.3
20260507234054 75 244 4.0 12.0 0.00 0.00 0.00 59 1014.4
20260507233952 76 284 2.0 12.0 0.00 0.00 0.00 59 1014.4
20260507233946 76 252 1.0 5.0 0.00 0.00 0.00 57 1014.3
20260507233702 75 292 2.0 9.0 0.00 0.00 0.00 58 1014.4
20260507232446 75 248 3.0 10.0 0.00 0.00 0.00 57 1014.3
20260507231445 75 263 2.0 9.0 0.00 0.00 0.00 58 1014.4
20260507230944 76 252 3.0 9.0 0.00 0.00 0.00 56 1014.4
20260507230449 75 305 5.0 9.0 0.00 0.00 0.00 59 1014.4
20260507230445 75 255 4.0 9.0 0.00 0.00 0.00 57 1014.4
20260507225444 75 279 5.0 13.0 0.00 0.00 0.00 60 1014.4
20260507224944 74 305 5.0 13.0 0.00 0.00 0.00 61 1014.4
20260507224444 74 329 6.0 13.0 0.00 0.00 0.00 61 1014.4
20260507223948 74 309 7.0 12.0 0.00 0.00 0.00 64 1014.5
20260507223944 74 311 7.0 13.0 0.00 0.00 0.00 63 1014.6
20260507222944 73 270 6.0 12.0 0.00 0.00 0.00 63 1014.5
20260507222444 73 284 6.0 11.0 0.00 0.00 0.00 65 1014.6
20260507221942 73 284 5.0 11.0 0.00 0.00 0.00 65 1014.6
20260507221442 73 266 4.0 10.0 0.00 0.00 0.00 64 1014.6
20260507220942 74 259 4.0 12.0 0.00 0.00 0.00 63 1014.8
20260507220442 74 287 5.0 12.0 0.00 0.00 0.00 65 1014.8
20260507215946 73 306 4.0 10.0 0.00 0.00 0.00 66 1014.9
20260507215942 73 267 4.0 10.0 0.00 0.00 0.00 66 1014.9
20260507214942 73 307 4.0 10.0 0.00 0.00 0.00 64 1015.0
20260507214443 72 310 5.0 10.0 0.00 0.00 0.00 67 1015.0
20260507213942 72 291 4.0 10.0 0.00 0.00 0.00 67 1015.1
20260507213442 72 267 2.0 8.0 0.00 0.00 0.00 66 1015.2
20260507212946 73 267 6.0 12.0 0.00 0.00 0.00 66 1015.2
20260507212942 73 304 4.0 10.0 0.00 0.00 0.00 66 1015.2
20260507211942 73 322 6.0 12.0 0.00 0.00 0.00 66 1015.3
20260507211443 73 267 4.0 11.0 0.00 0.00 0.00 66 1015.3
20260507210943 73 296 5.0 9.0 0.00 0.00 0.00 66 1015.3
20260507210443 72 280 5.0 9.0 0.00 0.00 0.00 65 1015.3
20260507205941 71 285 5.0 9.0 0.00 0.00 0.00 68 1015.4
20260507205441 71 254 5.0 9.0 0.00 0.00 0.00 67 1015.4
20260507204942 72 275 3.0 9.0 0.00 0.00 0.00 64 1015.4
20260507204938 73 292 1.0 8.0 0.00 0.00 0.00 64 1015.5
20260507203938 73 238 3.0 10.0 0.00 0.00 0.00 66 1015.6
20260507203435 72 72 4.0 10.0 0.00 0.00 0.00 69 1015.5
20260507202939 72 264 2.0 7.0 0.00 0.00 0.00 64 1015.7
20260507202935 71 289 3.0 10.0 0.00 0.00 0.00 66 1015.6
20260507201933 72 254 2.0 8.0 0.00 0.00 0.00 65 1015.7
20260507201433 72 266 2.0 8.0 0.00 0.00 0.00 65 1015.8
20260507200934 71 246 1.0 6.0 0.00 0.00 0.00 67 1015.7
20260507200433 72 292 1.0 3.0 0.00 0.00 0.00 67 1015.9
20260507195933 72 257 0.0 3.0 0.00 0.00 0.00 66 1015.9
20260507195434 73 263 1.0 4.0 0.00 0.00 0.00 65 1015.9
20260507194934 72 250 1.0 4.0 0.00 0.00 0.00 68 1015.9
20260507194433 73 226 1.0 4.0 0.00 0.00 0.00 66 1015.9
20260507193933 73 161 1.0 6.0 0.00 0.00 0.00 66 1015.9
20260507193433 72 211 2.0 11.0 0.00 0.00 0.00 66 1016.0
20260507192933 73 190 3.0 11.0 0.00 0.00 0.00 63 1016.0
20260507192434 74 26 4.0 11.0 0.00 0.00 0.00 63 1016.2
20260507191937 74 88 5.0 11.0 0.00 0.00 0.00 61 1016.0
20260507191933 74 92 4.0 11.0 0.00 0.00 0.00 61 1016.2
20260507190933 73 98 6.0 11.0 0.00 0.00 0.00 64 1016.2
20260507190438 74 30 6.0 10.0 0.00 0.00 0.00 60 1016.3
20260507190434 74 90 6.0 11.0 0.00 0.00 0.00 60 1016.2
20260507185434 74 24 6.0 12.0 0.00 0.00 0.00 61 1016.3
20260507184933 73 13 6.0 12.0 0.00 0.00 0.00 63 1016.4
20260507184433 72 46 7.0 12.0 0.00 0.00 0.00 63 1016.4
20260507183933 71 45 7.0 12.0 0.00 0.00 0.00 64 1016.4
20260507183434 72 13 6.0 11.0 0.00 0.00 0.00 63 1016.4
20260507182932 72 38 6.0 10.0 0.00 0.00 0.00 64 1016.4
20260507182435 72 55 6.0 10.0 0.00 0.00 0.00 64 1016.5
20260507182431 72 42 6.0 10.0 0.00 0.00 0.00 63 1016.4
20260507181430 71 0 5.0 10.0 0.00 0.00 0.00 64 1016.5
20260507180928 71 0 4.0 10.0 0.00 0.00 0.00 65 1016.4
20260507180427 71 346 5.0 10.0 0.00 0.00 0.00 66 1016.4
20260507175927 70 38 5.0 9.0 0.00 0.00 0.00 65 1016.4
20260507175425 70 36 4.0 9.0 0.00 0.00 0.00 66 1016.4
20260507174926 70 355 3.0 8.0 0.00 0.00 0.00 66 1016.4
20260507174425 70 45 2.0 8.0 0.00 0.00 0.00 66 1016.4
20260507173930 70 16 2.0 9.0 0.00 0.00 0.00 66 1016.4
20260507173925 70 43 2.0 9.0 0.00 0.00 0.00 68 1016.4
20260507172926 70 57 1.0 8.0 0.00 0.00 0.00 68 1016.4
20260507172425 70 70 1.0 5.0 0.00 0.00 0.00 71 1016.5
20260507171925 69 132 1.0 4.0 0.00 0.00 0.00 71 1016.4
20260507171426 69 109 2.0 6.0 0.00 0.00 0.00 71 1016.5
20260507170925 69 52 2.0 6.0 0.00 0.00 0.00 68 1016.4
20260507170430 68 38 2.0 8.0 0.00 0.00 0.00 70 1016.4
20260507170425 68 14 2.0 7.0 0.00 0.00 0.00 69 1016.4
20260507165432 67 17 3.0 6.0 0.00 0.00 0.00 72 1016.5
20260507165425 68 21 3.0 8.0 0.00 0.00 0.00 70 1016.5
20260507164425 67 40 3.0 5.0 0.00 0.00 0.00 71 1016.5
20260507163926 68 37 3.0 6.0 0.00 0.00 0.00 70 1016.5
20260507163425 68 29 2.0 6.0 0.00 0.00 0.00 70 1016.5
20260507162929 68 355 2.0 5.0 0.00 0.00 0.00 69 1016.4
20260507162924 68 20 2.0 5.0 0.00 0.00 0.00 70 1016.4
20260507161923 68 11 1.0 4.0 0.00 0.00 0.00 69 1016.3
20260507161423 69 49 1.0 3.0 0.00 0.00 0.00 68 1016.4
20260507160928 68 326 1.0 5.0 0.00 0.00 0.00 67 1016.5
20260507160924 68 24 1.0 5.0 0.00 0.00 0.00 67 1016.4
20260507155923 68 338 2.0 5.0 0.00 0.00 0.00 67 1016.5
20260507155423 68 29 1.0 5.0 0.00 0.00 0.00 67 1016.4
20260507154923 68 73 1.0 4.0 0.00 0.00 0.00 65 1016.4
20260507154423 68 37 1.0 4.0 0.00 0.00 0.00 67 1016.5
20260507153923 68 54 1.0 4.0 0.00 0.00 0.00 67 1016.4
20260507153421 68 39 1.0 3.0 0.00 0.00 0.00 66 1016.4
20260507152920 67 41 0.0 3.0 0.00 0.00 0.00 66 1016.4
20260507152421 67 97 0.0 2.0 0.00 0.00 0.00 66 1016.4
20260507152029 67 61 0.0 3.0 0.00 0.00 0.00 67 1016.4
20260507151925 67 36 0.0 3.0 0.00 0.00 0.00 67 1016.4
20260507151921 67 97 1.0 3.0 0.00 0.00 0.00 66 1016.4
20260507150421 67 111 0.0 3.0 0.00 0.00 0.00 67 1016.4
20260507145920 67 36 0.0 1.0 0.00 0.00 0.00 67 1016.4
20260507145421 66 36 0.0 1.0 0.00 0.00 0.00 65 1016.5
20260507144919 66 36 0.0 2.0 0.00 0.00 0.00 68 1016.5
20260507144417 66 38 1.0 2.0 0.00 0.00 0.00 69 1016.5
20260507143922 66 26 0.0 2.0 0.00 0.00 0.00 66 1016.4
20260507143916 66 20 0.0 2.0 0.00 0.00 0.00 67 1016.4
20260507143531 66 27 1.0 3.0 0.00 0.00 0.00 68 1016.3
20260507143525 66 26 0.0 2.0 0.00 0.00 0.00 68 1016.3
20260507141917 66 5 1.0 3.0 0.00 0.00 0.00 65 1016.3
20260507141417 65 5 0.0 3.0 0.00 0.00 0.00 63 1016.2
20260507140915 65 355 1.0 5.0 0.00 0.00 0.00 65 1016.3
20260507140415 65 355 3.0 6.0 0.00 0.00 0.00 64 1016.2
20260507135915 65 0 4.0 6.0 0.00 0.00 0.00 63 1016.0
20260507135414 65 349 4.0 6.0 0.00 0.00 0.00 63 1016.2
20260507134915 65 349 4.0 6.0 0.00 0.00 0.00 64 1016.0
20260507134415 65 351 4.0 6.0 0.00 0.00 0.00 64 1016.0
20260507133915 65 0 4.0 6.0 0.00 0.00 0.00 64 1015.8
20260507133417 65 5 2.0 5.0 0.00 0.00 0.00 64 1015.9
20260507133413 65 0 4.0 5.0 0.00 0.00 0.00 64 1015.8
20260507132411 65 5 1.0 3.0 0.00 0.00 0.00 64 1015.8
20260507131913 64 35 0.0 2.0 0.00 0.00 0.00 65 1015.9
20260507131412 64 35 1.0 3.0 0.00 0.00 0.00 65 1015.8
20260507130911 64 24 3.0 4.0 0.00 0.00 0.00 65 1015.8
20260507130411 64 22 3.0 5.0 0.00 0.00 0.00 65 1015.8
20260507125910 64 26 3.0 5.0 0.00 0.00 0.00 65 1015.8
20260507125411 64 76 2.0 4.0 0.00 0.00 0.00 67 1015.8
20260507124911 64 76 1.0 3.0 0.00 0.00 0.00 67 1015.8
20260507124411 64 76 1.0 5.0 0.00 0.00 0.00 69 1015.8
20260507123911 64 76 1.0 5.0 0.00 0.00 0.00 70 1015.7
20260507123411 64 76 3.0 5.0 0.00 0.00 0.00 68 1015.7
20260507122911 64 76 3.0 6.0 0.00 0.00 0.00 68 1015.7
20260507122411 64 75 4.0 7.0 0.00 0.00 0.00 69 1015.6
20260507121910 64 90 4.0 7.0 0.00 0.00 0.00 69 1015.8
20260507121411 64 78 3.0 4.0 0.00 0.00 0.00 69 1015.7
20260507120911 63 93 2.0 4.0 0.00 0.00 0.00 69 1015.7
20260507120411 63 144 2.0 4.0 0.00 0.00 0.00 68 1015.8
20260507115914 63 76 3.0 4.0 0.00 0.00 0.00 70 1015.8
20260507115909 63 76 3.0 4.0 0.00 0.00 0.00 69 1015.8
20260507114908 63 76 3.0 4.0 0.00 0.00 0.00 71 1015.7
20260507114408 63 76 3.0 5.0 0.00 0.00 0.00 71 1015.7
20260507113908 63 76 3.0 5.0 0.00 0.00 0.00 71 1015.8
20260507113408 63 76 4.0 5.0 0.00 0.00 0.00 70 1015.8
20260507112909 63 76 3.0 5.0 0.00 0.00 0.00 70 1015.8
20260507112408 63 76 2.0 4.0 0.00 0.00 0.00 69 1015.8
20260507111909 63 76 1.0 3.0 0.00 0.00 0.00 64 1015.9
20260507111405 63 76 2.0 3.0 0.00 0.00 0.00 65 1015.9
20260507110904 63 76 2.0 3.0 0.00 0.00 0.00 67 1016.0
20260507110404 63 76 2.0 4.0 0.00 0.00 0.00 66 1016.0
20260507105904 63 76 3.0 5.0 0.00 0.00 0.00 65 1016.0
20260507105402 63 76 2.0 5.0 0.00 0.00 0.00 65 1016.0
20260507104902 63 76 1.0 4.0 0.00 0.00 0.00 69 1016.0
20260507104404 64 76 0.0 3.0 0.00 0.00 0.00 67 1016.0
20260507103902 64 76 0.0 3.0 0.00 0.00 0.00 69 1016.2
20260507103402 64 76 2.0 3.0 0.00 0.00 0.00 67 1016.2
20260507102902 64 76 3.0 7.0 0.00 0.00 0.00 63 1016.2
20260507102402 64 76 4.0 7.0 0.00 0.00 0.00 63 1016.2
20260507101902 63 76 5.0 7.0 0.00 0.00 0.00 65 1016.2
20260507101402 63 76 3.0 5.0 0.00 0.00 0.00 64 1016.2
20260507100902 62 76 1.0 5.0 0.00 0.00 0.00 66 1016.3
20260507100402 62 76 0.0 1.0 0.00 0.00 0.00 73 1016.3
20260507095902 62 76 0.0 2.0 0.00 0.00 0.00 70 1016.3
20260507095402 62 76 0.0 2.0 0.00 0.00 0.00 73 1016.4
20260507094900 62 76 0.0 2.0 0.00 0.00 0.00 72 1016.4
20260507094400 62 76 0.0 2.0 0.00 0.00 0.00 74 1016.4
20260507093901 62 76 1.0 3.0 0.00 0.00 0.00 75 1016.4
20260507093404 62 76 0.0 2.0 0.00 0.00 0.00 75 1016.5
20260507093400 62 76 0.0 3.0 0.00 0.00 0.00 74 1016.5
20260507092400 61 76 0.0 2.0 0.00 0.00 0.00 75 1016.5
20260507091905 61 76 2.0 3.0 0.00 0.00 0.00 75 1016.6
20260507091901 61 76 1.0 3.0 0.00 0.00 0.00 75 1016.5
20260507090900 61 76 1.0 3.0 0.00 0.00 0.00 75 1016.6
20260507090508 62 47 1.0 5.0 0.00 0.00 0.00 75 1016.7
20260507090358 61 76 2.0 5.0 0.00 0.00 0.00 75 1016.6
20260507085903 61 56 2.0 5.0 0.00 0.00 0.00 75 1016.7
20260507085858 61 72 2.0 5.0 0.00 0.00 0.00 76 1016.6
20260507084358 62 65 2.0 4.0 0.00 0.00 0.00 76 1016.8
20260507083858 62 59 2.0 6.0 0.00 0.00 0.00 76 1016.9
20260507083358 61 119 2.0 6.0 0.00 0.00 0.00 76 1016.9
20260507082858 61 55 1.0 4.0 0.00 0.00 0.00 76 1016.9
20260507082357 61 84 1.0 4.0 0.00 0.00 0.00 76 1017.0
20260507081902 60 20 4.0 6.0 0.00 0.00 0.00 76 1017.0
20260507081858 60 61 2.0 5.0 0.00 0.00 0.00 76 1017.0
20260507080858 60 32 5.0 6.0 0.00 0.00 0.00 76 1017.0
20260507080358 60 39 5.0 7.0 0.00 0.00 0.00 75 1017.1
20260507075858 60 39 6.0 7.0 0.00 0.00 0.00 75 1017.0
20260507075355 60 51 5.0 7.0 0.00 0.00 0.00 75 1017.0
20260507074855 60 46 5.0 7.0 0.00 0.00 0.00 75 1017.0
20260507074356 60 109 6.0 8.0 0.00 0.00 0.00 76 1017.0
20260507073856 60 5 6.0 8.0 0.00 0.00 0.00 76 1017.1
20260507073355 60 65 7.0 8.0 0.00 0.00 0.00 76 1017.1
20260507072855 60 66 6.0 8.0 0.00 0.00 0.00 75 1017.1
20260507072359 60 106 5.0 7.0 0.00 0.00 0.00 74 1017.2
20260507072355 60 77 5.0 8.0 0.00 0.00 0.00 74 1017.1
20260507071359 60 106 5.0 7.0 0.00 0.00 0.00 75 1017.1
20260507071355 60 106 5.0 7.0 0.00 0.00 0.00 75 1017.1
20260507070356 60 106 6.0 7.0 0.00 0.00 0.00 74 1017.1
20260507065855 60 106 6.0 7.0 0.00 0.00 0.00 75 1017.1
20260507065355 60 106 5.0 7.0 0.00 0.00 0.00 75 1017.1
20260507064855 60 106 4.0 7.0 0.00 0.00 0.00 75 1017.1
20260507064357 60 106 1.0 4.0 0.00 0.00 0.00 75 1017.2
20260507064353 60 106 2.0 6.0 0.00 0.00 0.00 75 1017.2
20260507063353 60 106 2.0 6.0 0.00 0.00 0.00 74 1017.2
20260507062852 60 106 3.0 6.0 0.00 0.00 0.00 73 1017.2
20260507062351 61 106 4.0 6.0 0.00 0.00 0.00 74 1017.1
20260507061849 61 106 4.0 6.0 0.00 0.00 0.00 74 1017.0
20260507061350 61 106 4.0 6.0 0.00 0.00 0.00 74 1017.0
20260507060849 61 126 4.0 6.0 0.00 0.00 0.00 74 1017.0
20260507060347 61 126 4.0 6.0 0.00 0.00 0.00 73 1017.1
20260507055850 61 126 4.0 6.0 0.00 0.00 0.00 73 1017.1
20260507055845 61 126 3.0 6.0 0.00 0.00 0.00 72 1017.1
20260507055452 61 126 3.0 6.0 0.00 0.00 0.00 71 1017.1
20260507054345 61 126 3.0 6.0 0.00 0.00 0.00 71 1017.1
20260507053844 61 127 3.0 4.0 0.00 0.00 0.00 71 1017.1
20260507053343 61 127 3.0 4.0 0.00 0.00 0.00 71 1017.1
20260507052843 61 131 1.0 4.0 0.00 0.00 0.00 71 1017.1
20260507052343 61 132 0.0 2.0 0.00 0.00 0.00 71 1017.0
20260507051842 61 139 0.0 2.0 0.00 0.00 0.00 70 1017.0
20260507051343 61 132 0.0 2.0 0.00 0.00 0.00 70 1017.0
20260507050847 61 132 1.0 4.0 0.00 0.00 0.00 70 1017.1
20260507050843 61 132 1.0 4.0 0.00 0.00 0.00 71 1017.1
20260507045843 61 135 2.0 5.0 0.00 0.00 0.00 72 1017.0
20260507045343 62 149 2.0 5.0 0.00 0.00 0.00 74 1017.0
20260507044841 62 150 2.0 5.0 0.00 0.00 0.00 75 1017.0
20260507044341 62 151 2.0 5.0 0.00 0.00 0.00 75 1017.0
20260507043841 62 144 2.0 4.0 0.00 0.00 0.00 75 1017.0
20260507043341 62 141 2.0 4.0 0.00 0.00 0.00 75 1017.0
20260507042841 62 150 2.0 4.0 0.00 0.00 0.00 75 1017.0
20260507042341 62 158 3.0 5.0 0.00 0.00 0.00 75 1017.0
20260507041841 62 132 3.0 5.0 0.00 0.00 0.00 75 1016.9
20260507041342 62 132 3.0 4.0 0.00 0.00 0.00 75 1017.0
20260507040841 62 130 3.0 4.0 0.00 0.00 0.00 76 1016.9
20260507040344 61 130 1.0 3.0 0.00 0.00 0.00 76 1016.9
20260507040340 61 130 2.0 3.0 0.00 0.00 0.00 76 1016.9
20260507035340 61 149 0.0 2.0 0.00 0.00 0.00 75 1016.9
20260507034839 61 145 0.0 2.0 0.00 0.00 0.00 75 1016.7
20260507034339 61 144 0.0 3.0 0.00 0.00 0.00 75 1016.6
20260507033839 61 149 1.0 3.0 0.00 0.00 0.00 75 1016.6
20260507033339 60 147 1.0 3.0 0.00 0.00 0.00 76 1016.6
20260507032839 60 143 1.0 3.0 0.00 0.00 0.00 75 1016.6
20260507032339 60 143 2.0 4.0 0.00 0.00 0.00 73 1016.5
20260507031839 60 142 1.0 4.0 0.00 0.00 0.00 74 1016.4
20260507031338 60 131 0.0 2.0 0.00 0.00 0.00 75 1016.4
20260507030838 60 121 0.0 2.0 0.00 0.00 0.00 75 1016.4
20260507030339 60 115 0.0 2.0 0.00 0.00 0.00 75 1016.3
20260507025843 60 246 2.0 3.0 0.00 0.00 0.00 77 1016.3
20260507025839 60 317 1.0 3.0 0.00 0.00 0.00 76 1016.3
20260507024840 60 245 1.0 3.0 0.00 0.00 0.00 77 1016.2
20260507024836 60 222 1.0 3.0 0.00 0.00 0.00 73 1016.0
20260507023835 60 235 1.0 3.0 0.00 0.00 0.00 74 1016.0
20260507023335 60 220 3.0 5.0 0.00 0.00 0.00 70 1016.2
20260507022833 60 211 2.0 5.0 0.00 0.00 0.00 72 1016.0
20260507022337 60 201 3.0 7.0 0.00 0.00 0.00 70 1016.0
20260507022333 60 225 2.0 7.0 0.00 0.00 0.00 74 1015.9
20260507021334 60 204 5.0 7.0 0.00 0.00 0.00 71 1015.9
20260507021330 60 205 5.0 7.0 0.00 0.00 0.00 71 1015.8
20260507020331 60 213 5.0 7.0 0.00 0.00 0.00 70 1015.8
20260507015828 61 213 5.0 7.0 0.00 0.00 0.00 70 1015.8
20260507015328 61 213 5.0 6.0 0.00 0.00 0.00 72 1015.8
20260507014829 62 214 4.0 6.0 0.00 0.00 0.00 72 1015.8
20260507014329 63 207 4.0 6.0 0.00 0.00 0.00 76 1015.8
20260507013834 63 238 4.0 7.0 0.00 0.00 0.00 75 1015.8
20260507013829 63 221 4.0 6.0 0.00 0.00 0.00 76 1015.9
20260507013328 63 253 4.0 7.0 0.00 0.00 0.00 75 1015.8
20260507012329 63 258 3.0 9.0 0.00 0.00 0.00 75 1015.8
20260507011828 63 218 3.0 9.0 0.00 0.00 0.00 76 1015.8
20260507011329 63 285 3.0 8.0 0.00 0.00 0.00 76 1015.7
20260507010829 62 236 3.0 7.0 0.00 0.00 0.00 77 1015.7
20260507010329 62 242 3.0 7.0 0.00 0.00 0.00 77 1015.7